DW8661 Weather Reports


Display with metric or nautical units.
time (UTC)temp
F
wind
direction
speed
MPH
gust
MPH
rain 1hr
in
rain 24hr
in
rain mn
in
humidity
%
barometer
mb
20260510194502 55 158 6.0 11.0 0.00 0.21 0.11 73 1014.9
20260510193002 55 155 5.0 10.0 0.00 0.21 0.11 71 1014.9
20260510191504 56 253 4.0 10.0 0.00 0.21 0.11 70 1014.6
20260510190009 56 236 4.0 14.0 0.00 0.21 0.11 69 1014.4
20260510184501 57 143 4.0 14.0 0.00 0.21 0.11 68 1014.2
20260510183000 57 179 8.0 12.0 0.00 0.21 0.11 66 1014.1
20260510181501 58 253 6.0 14.0 0.00 0.21 0.11 61 1014.3
20260510180003 57 207 5.0 16.0 0.00 0.21 0.11 63 1014.1
20260510174502 58 200 8.0 16.0 0.00 0.21 0.11 62 1014.1
20260510173004 58 218 8.0 15.0 0.00 0.21 0.11 59 1014.2
20260510171502 59 221 8.0 18.0 0.00 0.21 0.11 58 1014.1
20260510170101 59 225 5.0 21.0 0.00 0.21 0.11 55 1013.9
20260510164602 59 230 12.0 17.0 0.00 0.26 0.11 57 1013.8
20260510163123 59 150 10.0 18.0 0.00 0.26 0.11 56 1013.9
20260510163002 59 251 10.0 20.0 0.00 0.26 0.11 56 1013.8
20260510161606 59 182 10.0 19.0 0.00 0.26 0.11 56 1014.1
20260510160007 58 309 10.0 19.0 0.00 0.26 0.11 58 1014.1
20260510154502 59 242 7.0 16.0 0.00 0.26 0.11 56 1014.0
20260510153001 58 124 10.0 17.0 0.00 0.26 0.11 60 1013.9
20260510151502 57 204 5.0 17.0 0.00 0.26 0.11 62 1014.2
20260510150002 57 231 10.0 19.0 0.00 0.26 0.11 61 1014.5
20260510144502 56 239 5.0 17.0 0.00 0.27 0.11 72 1014.6
20260510143002 55 124 7.0 15.0 0.00 0.27 0.11 72 1014.7
20260510141502 55 245 6.0 13.0 0.00 0.27 0.11 73 1014.7
20260510140002 55 230 5.0 13.0 0.00 0.27 0.11 73 1014.7
20260510134613 54 49 6.0 12.0 0.00 0.27 0.11 76 1014.7
20260510133059 54 178 4.0 11.0 0.00 0.27 0.11 76 1014.6
20260510131601 54 244 4.0 12.0 0.00 0.27 0.11 75 1014.4
20260510124601 54 262 7.0 13.0 0.01 0.35 0.11 77 1014.3
20260510123101 54 228 3.0 14.0 0.02 0.35 0.11 81 1014.7
20260510121600 53 155 8.0 14.0 0.02 0.35 0.11 81 1014.7
20260510120100 52 151 5.0 10.0 0.02 0.35 0.10 84 1014.6
20260510114600 51 214 5.0 12.0 0.02 0.38 0.10 86 1014.9
20260510113123 51 224 4.0 14.0 0.02 0.37 0.09 87 1015.0
20260510111601 52 193 5.0 16.0 0.06 0.36 0.09 85 1015.1
20260510110003 52 227 2.0 9.0 0.06 0.35 0.08 86 1014.7
20260510104603 51 183 3.0 11.0 0.06 0.42 0.08 86 1014.7
20260510103104 53 207 2.0 17.0 0.05 0.41 0.07 84 1014.7
20260510103001 53 216 4.0 17.0 0.05 0.41 0.07 83 1014.6
20260510101601 56 208 7.0 14.0 0.00 0.36 0.02 77 1013.9
20260510100100 56 288 7.0 20.0 0.00 0.36 0.02 76 1013.7
20260510100002 56 152 9.0 20.0 0.00 0.36 0.02 75 1013.6
20260510094502 56 172 10.0 22.0 0.00 0.36 0.02 76 1013.8
20260510093109 56 140 8.0 19.0 0.00 0.36 0.02 78 1013.9
20260510091502 56 195 6.0 16.0 0.00 0.36 0.02 80 1014.1
20260510090100 55 342 7.0 15.0 0.00 0.36 0.02 82 1014.2
20260510090005 55 200 7.0 15.0 0.00 0.36 0.02 82 1014.2
20260510084603 54 264 7.0 14.0 0.00 0.36 0.02 84 1014.4
20260510084501 54 146 8.0 14.0 0.00 0.36 0.02 84 1014.5
20260510083001 53 194 5.0 14.0 0.00 0.36 0.02 86 1014.5
20260510081625 53 135 6.0 11.0 0.00 0.36 0.02 86 1014.7
20260510081505 53 148 5.0 11.0 0.00 0.36 0.02 85 1014.6
20260510080001 53 136 6.0 10.0 0.00 0.36 0.02 86 1014.4
20260510074501 52 194 6.0 11.0 0.01 0.36 0.02 86 1014.8
20260510073106 52 139 3.0 8.0 0.01 0.36 0.02 87 1014.7
20260510071501 52 215 2.0 7.0 0.01 0.36 0.02 87 1014.7
20260510070100 52 160 4.0 12.0 0.01 0.36 0.02 86 1014.6
20260510070002 52 141 5.0 12.0 0.01 0.36 0.02 86 1014.6
20260510064603 52 166 5.0 11.0 0.00 0.35 0.02 85 1014.5
20260510063101 52 134 3.0 7.0 0.00 0.35 0.02 86 1014.4
20260510061600 51 143 3.0 11.0 0.00 0.35 0.02 87 1014.3
20260510061503 51 181 4.0 11.0 0.00 0.35 0.02 87 1014.3
20260510060001 51 170 4.0 8.0 0.00 0.35 0.02 89 1014.3
20260510054601 51 205 4.0 8.0 0.00 0.35 0.02 88 1014.3
20260510053124 50 150 4.0 9.0 0.00 0.35 0.02 89 1014.3
20260510051503 50 147 6.0 10.0 0.00 0.35 0.02 89 1014.3
20260510050112 50 124 2.0 6.0 0.00 0.35 0.02 90 1014.2
20260510044607 50 177 2.0 6.0 0.00 0.35 0.02 90 1014.2
20260510043101 50 129 2.0 4.0 0.00 0.35 0.02 90 1014.2
20260510041604 50 184 0.0 6.0 0.00 0.35 0.02 90 1014.3
20260510040058 50 227 2.0 5.0 0.00 0.35 0.02 89 1014.1
20260510040002 50 201 2.0 6.0 0.00 0.35 0.02 89 1014.2
20260510034601 50 238 3.0 6.0 0.00 0.35 0.02 90 1014.3
20260510033113 50 203 2.0 5.0 0.00 0.35 0.02 90 1014.3
20260510031559 50 196 2.0 6.0 0.00 0.35 0.02 90 1014.4
20260510030112 50 181 2.0 6.0 0.00 0.35 0.02 90 1014.7
20260510030002 50 178 2.0 6.0 0.00 0.35 0.02 90 1014.6
20260510024559 50 120 1.0 3.0 0.00 0.35 0.02 90 1014.7
20260510023100 50 226 1.0 3.0 0.00 0.35 0.02 91 1014.9
20260510021600 50 239 3.0 5.0 0.00 0.35 0.02 90 1014.8
20260510020001 50 195 2.0 5.0 0.00 0.35 0.02 91 1014.8
20260510014603 50 236 1.0 5.0 0.00 0.35 0.02 91 1014.8
20260510013059 50 207 1.0 4.0 0.00 0.35 0.02 91 1014.8
20260510011600 50 116 2.0 7.0 0.00 0.35 0.02 90 1014.8
20260510010100 50 236 2.0 6.0 0.00 0.35 0.02 90 1014.8
20260510010001 50 153 2.0 6.0 0.00 0.35 0.02 90 1015.0
20260510004600 50 207 4.0 8.0 0.00 0.35 0.02 91 1014.8
20260510003105 50 227 5.0 8.0 0.00 0.35 0.02 90 1014.8
20260510001600 50 200 3.0 8.0 0.00 0.35 0.02 90 1014.9
20260510000103 50 260 4.0 8.0 0.00 0.35 0.02 91 1014.9
20260510000002 50 192 5.0 8.0 0.00 0.35 0.02 90 1014.9
20260509234601 50 224 3.0 9.0 0.02 0.35 0.02 91 1015.0
20260509233105 50 197 2.0 7.0 0.02 0.35 0.02 90 1015.2
20260509231600 50 155 0.0 8.0 0.02 0.35 0.02 90 1015.1
20260509230100 50 144 4.0 11.0 0.02 0.35 0.02 90 1015.0
20260509230002 50 230 3.0 11.0 0.02 0.35 0.02 90 1015.0
20260509224501 51 228 5.0 9.0 0.00 0.34 0.00 89 1014.9
20260509223002 51 219 1.0 5.0 0.00 0.34 0.00 89 1014.7
20260509221501 51 246 3.0 7.0 0.00 0.34 0.00 88 1014.8
20260509220001 51 170 3.0 7.0 0.02 0.34 0.34 89 1014.2
20260509214501 50 198 1.0 4.0 0.05 0.34 0.34 89 1014.2
20260509213002 50 228 0.0 2.0 0.08 0.34 0.34 90 1014.1
20260509211501 51 255 0.0 3.0 0.10 0.34 0.34 89 1014.2
20260509210000 51 230 1.0 3.0 0.09 0.32 0.32 88 1014.2
20260509204502 51 246 2.0 9.0 0.06 0.28 0.28 86 1014.0
20260509203001 54 337 6.0 24.0 0.02 0.26 0.26 75 1013.8
20260509201501 58 156 6.0 15.0 0.00 0.24 0.24 72 1012.3
20260509200003 58 142 6.0 0.0 1.09 0.00 0.24 71 1011.7